Tracking 19827 objects as of 22-Aug-2019
HD Live streaming from Space Station
objects crossing your sky now

FENGYUN 1C DEB

Track FENGYUN 1C DEB now!
10-day predictions


NORAD ID: 31710
Int'l Code: 1999-025CDH
Perigee: 476.0 km
Apogee: 600.3 km
Inclination: 99.0 °
Period: 95.3 minutes
Semi major axis: 6909 km
RCS: 0.0102 m2 (small)
Launch date: May 10, 1999
Source: People's Republic of China (PRC)
Launch site: Taiyaun Space Center, China (TSC)

Note: This is SATELLITE DEBRIS
aabbcc
Your satellite tracking list
Your tracking list is empty




NASA's NSSDC Master Catalog

Two Line Element Set (TLE):
1 31710U 99025CDH 19233.44597886  .00001699  00000-0  95847-4 0  9998
2 31710  98.9842 104.4659 0089942 251.5855 107.5576 15.11711537662137
Source of the keplerian elements: AFSPC